Погода в Щиграх

Россия / Курганская область     55°59′13″N   66°37′12″E
темп.,
°C
ветер,
м/с
пор.,
м/с
влажн.,
%
обл.,
%
осадки,
мм/ч
давл.,
гПа
погр.,
м
16 мая, вс
вс1623:00+20з411471 0.0 1017168
02:00+19з485054 0.0 1017119
05:00+17сз385791 0.0 1018140
08:00+23з5847100 0.0 1018361
11:00+29з693326 0.0 10171182
14:00+32зсз8122496 0.0 10173325
17:00+31зсз71025100 0.0 10171656
20:00+24з493823 0.0 1017125
17 мая, пн
пн1723:00+22зюз473867 0.0 101783
02:00+19з410477 0.0 1016158
05:00+18з47545 0.0 101896
08:00+24з48425 0.0 1018310
11:00+30з79285 0.0 10172494
14:00+31з810225 0.0 10163597
17:00+30з792460 0.0 10143428
20:00+24з91638100 0.0 1014383
18 мая, вт
вт1823:00+21з51339100 0.0 1014310
02:00+17ю225961 0.1 101420
05:00+17зюз3668100 0.2 101387
08:00+21з6105896 0.0 1012442
11:00+26зсз710383 0.0 10112272
14:00+24ссз694185 0.0 10101011
17:00+20ссз912568 0.1 10131066
20:00+14с8127584 0.3 1016912
19 мая, ср
ср1923:00+12ссв71174100 0.3 1019908
02:00+10ссв611765 0.0 1021711
05:00+9ссв612780 0.0 1023571
08:00+12св68550 0.0 10241005
11:00+16св563835 0.0 10241583
14:00+18ссв4531100 0.0 10241811
17:00+18с55315 0.0 10241728
20:00+14с33475 0.0 102429
20 мая, чт
чт2023:00+11всв225044 0.0 102510
02:00+9ю225318 0.0 102510
05:00+9юз225834 0.0 102524
08:00+15зюз454396 0.0 1025393
11:00+20з56378 0.0 10241518
14:00+23з67325 0.0 10221699
17:00+23з67313 0.0 10201637
20:00+18зюз48500 0.0 1019131